パンスターズ彗星

C/2016 Q2 ( PanSTARRS )

English version
Home page
Updated on November 23, 2017

---------------------------------------------------------------------

・ プロフィール

発見日 2016年8月26日
発見光度 21.6等
発見者 Pan-STARRS 1 telescope (Haleakala)

・ 写真集

・ 軌道要素

Epoch 2021 May 26.0 TT = JDT 2459360.5
T 2021 May 11.77242 TT                                  MPCW
q   7.0814003            (2000.0)            P               Q
z  -0.0001272      Peri.   84.52995     -0.12668616     -0.80692952
 +/-0.0000097      Node   322.29578     -0.66687846     +0.49982421
e   1.0009006      Incl.  109.38861     +0.73431855     +0.31470701
From 65 observations 2016 Aug. 26-2017 Oct. 14, mean residual 0".5.

・ 星図

・ 光度変化

        m1 = 4.0 + 5 logΔ + 10.0 log r

---------------------------------------------------------------------

軌道要素はM.P.E.C. 2017-V13に掲載されたものです。
星図はステラナビゲータ Ver.10 (アストロアーツ) で作成したものです。
光度グラフはComet for Windowsで作成したものです。

---------------------------------------------------------------------

Copyright(C) Seiichi Yoshida (comet@aerith.net). All rights reserved.